TITAN 3C TRANSTAGE DEB, 1671

Orbit data source: Space-Track

TITAN 3C TRANSTAGE DEB, 1671 is space debris in LEO originally from a launch on Fri, 15 Oct 1965 UTC launched from the Air Force Eastern Test Range (AFETR). Debris objects in space refer to the collection of defunct objects orbiting the Earth. Examples of debris include non-operational satellites, rocket bodies, and fragments generated from explosions, collisions, or faulty payload assembly.

Loading next visibility...
Identifier
1671, 1965-082AJ
Orbit
LEO
Country
Flag of USUS
Related business
Manufacturer
Unknown
Mission
Spacecraft
Bus & Motor
Unknown
Mass
Unknown
Launch date (UTC)
1965-10-15 (61 years ago)
Launch vehicle
Unknown
Launch site
Air Force Eastern Test Range (AFETR)
Object type
Payload
Rocket body
Debris
Shape & HBR
Unknown shape, 0.3 m
Radar Cross Section
Medium (>0.1 m² and <1 m²)

Expand to show TLE details & history
Last TLE update: 11 hours ago

TLE from 11 hours ago
0 TITAN 3C TRANSTAGE DEB
1  1671U 65082AJ  26124.84451562  .00000439  00000-0  92197-4 0  9994
2  1671  32.1620 306.1839 0052277 205.4668 154.3396 14.53984475180083
Epoch: 2026-05-04T20:16Z
TLE epoch observation values (Epoch: 2026-05-04T20:16:06.149Z)
Latitude
0.00002°
Longitude
139.43043°
Altitude
744.763 km
Speed
7.467 km/s
True Right ascension
20h 24m 44s
True Declination
0° 00' 00"
Sunlit
Object was in daylight at epoch
Visualization orbit readout
Latitude
Unknown
Longitude
Unknown
Altitude
Unknown
Speed
Unknown
Apparent Right ascension
Unknown
Apparent Declination
Unknown
Sunlit
N/A
Visualization observer readout
Local Sidereal Time
15:12:28
Azimuth
Unknown
Elevation
Unknown
Doppler factor
Unknown
Orbital elements
Apogee altitude
753.329 km
Perigee altitude
679.154 km
Semi-major axis
7,094.378 km
Eccentricity
0.00523
Inclination
32.162°
RAAN
306.1839°
Arg. of periapsis
205.4668°
True anomaly
154.59749°
Mean anomaly
154.3396°
Eccentric anomaly
154.4687°
Mean motion
3.63222 °/min
Orbital period
99.11 mins
BSTAR
0.000092197

Documentation

Showing up to 5 results
|